SCP
0 0 0 0 0 0 0 0 0 0 0 0 0 0 0 0 0 0 0 0 0 0 0 0 0 0 0 0 0 0 0 0 0 0 0 0 0 0
0 0 0 0 0 0 0 0 0 0 0 0 0 0 0 0 0 0 0 0 0 0 0 0 0 0 0 0 0 0 0 0 0 0 0 0 0 0
0 0 0 0 0 0 0 0 0 0 0 0 0 0 0 0 0 0 0 0 0 0 0 0 0 0 0 0 0 0 0 0 0 0 0 0 0 0
0 0 0 0 0 0 0 0 0 0 0 0 0 0 0 0 0 0 0 0 0 0 0 0 0 0 0 0 0 0 0 0 0 0 0 0 0 0
0 0 0 0 0 0 0 0 0 0 0 0 0 0 0 0 0 0 0 0 0 0 0 0 0 0 0 0 0 0 0 0 0 0 0 0 0 0
0 0 0 0 0 0 0 0 0 0 0 0 0 0 0 0 0 0 0 0 0 0 0 0 0 0 0 0 0 0 0 0 0 0 0 0 0 0
0 0 0 0 0 0 0 0 0 0 0 0 0 0 0 0 0 0 0 0 0 0 0 0 0 0 0 0 0 0 0 0 0 0 0 0 0 0
0 0 0 0 0 0 0 0 0 0 0 0 0 0 0 0 0 0 0 0 0 0 0 0 0 0 0 0 0 0 0 0 0 0 0 0 0 0
0 0 0 0 0 0 0 0 0 0 0 0 0 0 0 0 0 0 0 0 0 0 0 0 0 0 0 0 0 0 0 0 0 0 0 0 0 0
0 0 0 0 0 0 0 0 0 0 0 0 0 0 0 0 0 0 0 0 0 0 0 0 0 0 0 0 0 0 0 0 0 0 0 0 0 0
0 0 0 0 0 0 0 0 0 0 0 0 0 0 0 0 0 0 0 0 0 0 0 0 0 0 0 0 0 0 0 0 0 0 0 0 0 0
0 0 0 0 0 0 0 0 0 0 0 0 0 0 0 0 0 0 0 0 0 0 0 0 0 0 0 0 0 0 0 0 0 0 0 0 0 0
0 0 0 0 0 0 0 0 0 0 0 0 0 0 0 0 0 0 0 0 0 0 -0 -0 0 0 0 0 0 0 0 0 0 0 0 0 0 0
0 0 0 0 0 0 0 0 0 0 0 0 0 0 0 0 0 0 0 0 0 0 0 0 0 0 0 0 0 0 0 0 0 0 0 0 0 0
0 0 0 0 0 0 0 0 0 0 0 0 0 0 0 0 0 0 0 0 0 0 0 0 0 0 0 0 0 0 0 0 0 0 0 0 0 0
0 0 0 0 0 0 0 0 0 0 0 0 0 0 0 0 0 0 0 0 0 0 0 0 0 0 0 0 0 0 0 0 0 0 0 0 0 0
0 0 0 0 0 0 0 0 0 0 0 0 0 0 0 0 0 0 0 0 0 0 0 0 0 0 0 0 0 0 0 0 0 0 0 0 0 0
0 0 0 0 0 0 0 0 0 0 0 0 0 0 0 0 0 0 0 0 0 0 0 0 0 0 0 0 0 0 0 0 0 0 0 0 0 0
0 0 0 0 0 0 0 0 0 0 0 0 0 0 0 0 0 0 0 0 0 0 0 0 0 0 0 0 0 0 0 0 0 0 0 0 0 0
0 0 0 0 0 0 0 0 0 0 0 0 0 0 0 0 0 0 0 0 0 0 0 0 0 0 0 0 0 0 0 0 0 0 0 0 0 0
0 0 0 0 0 0 0 0 0 0 0 0 0 0 0 0 0 0 0 0 0 0 0 0 0 0 0 0 0 0 0 0 0 0 0 0 0 0
0 0 0 0 0 0 0 0 0 0 0 0 0 0 0 0 0 0 0 0 0 0 0 0 0 0 0 0 0 0 0 0 0 0 0 0 0 0
0 0 0 0 0 0 0 0 0 0 0 0 0 0 0 0 0 0 0 0 0 0 0 0 0 0 0 0 0 0 0 0 0 0 0 0 0 0
Wind_Speed_500mb
66 69 72 74 71 73 78 74 75 91 114 78 76 78 74 71 68 70 78 76 70 71 71 75 78 79 79 79 76 78 85 87 97 99 94 70 66 65
61 66 70 74 75 77 74 74 74 79 97 98 83 79 87 90 90 85 81 75 72 69 71 75 78 77 79 78 78 75 77 80 78 77 80 64 58 59
64 67 71 71 75 77 75 72 77 76 88 123 98 97 100 98 94 85 82 79 77 74 72 76 77 80 79 78 73 68 73 70 87 66 58 47 38 36
71 73 76 76 78 76 75 76 74 78 80 94 106 100 99 103 96 92 87 83 81 78 75 74 73 73 75 71 60 52 51 54 35 49 52 47 44 42
76 78 81 81 83 81 80 79 76 74 80 87 102 94 99 97 93 91 88 85 81 76 71 69 66 64 55 30 39 52 59 44 48 51 42 40 40 40
82 82 82 82 84 84 84 83 79 77 79 83 95 99 96 96 93 90 88 80 75 70 65 60 57 51 36 35 37 31 34 42 44 40 38 37 38 44
85 84 84 83 82 82 83 85 79 78 83 88 94 94 94 95 92 86 77 71 67 60 51 43 34 21 20 30 29 30 32 30 28 26 26 32 32 29
93 92 90 89 86 84 81 81 76 76 83 85 90 87 88 83 84 80 70 60 47 36 24 15 5 13 23 24 20 20 20 19 18 21 22 22 29 30
96 97 99 94 91 88 86 84 82 76 74 82 87 89 86 81 77 67 52 42 32 19 9 9 14 18 15 17 21 20 17 18 21 25 23 21 24 28
97 97 96 96 89 87 86 86 83 77 73 74 78 80 75 65 54 45 34 26 13 15 18 30 23 26 23 21 18 17 20 25 21 17 19 23 26 29
99 97 94 92 79 74 77 80 76 72 65 61 56 49 42 34 29 23 18 19 24 25 15 32 27 24 20 15 8 17 26 21 17 19 21 22 24 28
96 94 90 79 71 64 66 63 63 57 45 33 26 21 14 7 11 11 20 20 29 25 18 18 25 21 15 21 29 28 20 16 15 17 17 21 28 35
88 84 78 67 63 54 42 40 38 32 17 7 9 21 24 27 28 27 21 23 15 17 22 13 21 20 11 24 27 25 21 17 14 17 22 27 35 40
70 70 64 54 35 31 31 21 10 6 13 21 24 26 29 29 24 19 16 13 13 13 15 9 11 11 10 12 12 18 18 17 19 21 27 33 36 39
53 52 40 24 27 16 7 4 5 10 18 27 29 26 22 20 16 12 10 9 9 10 8 5 4 6 6 5 5 6 8 12 20 24 29 33 37 37
42 31 18 17 9 5 2 9 14 23 25 20 17 15 13 12 9 7 5 7 6 8 7 4 3 0 1 3 3 4 12 16 26 28 27 28 30 28
30 17 14 11 9 8 13 21 22 17 13 10 8 8 8 6 3 2 2 2 2 4 3 3 3 3 3 3 6 12 18 22 23 25 25 28 30 29
24 19 20 16 12 19 19 18 15 9 4 2 4 4 2 1 1 1 2 2 3 2 3 2 2 3 3 4 7 10 14 19 24 27 30 32 31 29
30 27 29 26 21 19 19 16 12 9 5 4 4 3 3 3 4 5 6 5 3 2 3 3 2 2 4 4 10 14 19 23 26 28 30 31 34 32
36 38 37 32 29 25 21 18 15 12 9 8 6 6 6 8 9 9 8 8 6 4 4 2 3 5 5 7 13 18 20 24 27 28 30 31 33 32
41 40 39 35 31 28 24 19 16 13 12 11 11 11 12 12 12 11 10 8 6 6 5 3 4 6 8 11 13 19 20 22 25 28 30 33 35 33
39 43 43 38 33 27 23 20 17 16 16 15 15 14 14 13 13 11 10 9 9 8 6 6 7 9 11 14 16 19 22 23 25 24 24 27 30 26
40 38 38 34 31 27 23 21 20 19 19 19 17 16 16 14 13 12 12 12 11 10 10 9 10 12 14 15 17 20 22 24 26 23 19 23 26 29
Wind_Direction_500mb
301 301 299 298 292 283 282 285 279 286 292 290 288 292 293 293 292 292 297 299 295 292 287 284 284 285 282 278 273 265 262 259 254 227 219 213 211 219
306 304 301 301 300 295 290 286 278 273 278 291 288 288 289 290 293 298 297 298 295 291 290 288 288 285 285 281 277 271 258 258 230 207 218 210 222 231
309 307 305 303 299 296 292 285 279 278 274 287 284 289 289 292 294 297 297 298 295 294 291 288 283 282 283 282 280 274 254 245 217 211 214 212 219 223
312 309 307 305 302 301 298 293 285 277 279 278 287 288 289 292 294 294 295 295 295 295 292 290 287 285 286 286 280 255 230 189 190 185 188 197 209 229
312 311 310 308 305 303 301 295 290 288 282 280 284 285 288 290 291 291 293 294 295 295 293 291 288 286 285 242 225 232 217 204 195 198 212 219 227 232
311 310 309 307 305 304 302 298 296 291 288 284 282 285 286 286 287 289 291 294 295 293 291 287 284 285 271 236 241 232 210 202 206 215 221 235 249 254
310 310 309 307 304 301 299 297 294 289 287 286 286 287 286 287 289 293 294 295 296 295 293 288 283 275 210 201 200 198 199 210 222 229 240 255 261 267
311 310 308 307 305 301 297 294 290 286 285 285 285 284 286 288 291 293 292 290 290 294 293 282 238 168 187 185 189 201 204 208 229 254 261 262 275 277
310 310 309 307 305 302 299 295 292 291 286 286 284 283 285 287 289 288 283 278 270 268 216 158 178 170 169 162 177 194 214 241 256 261 268 271 271 270
309 308 306 305 304 301 298 295 296 297 293 287 285 286 286 284 277 276 271 259 236 171 155 131 157 153 166 176 195 230 251 243 252 256 256 264 271 279
309 307 306 305 305 299 296 295 296 297 297 293 288 285 282 277 275 263 233 186 158 150 134 150 157 154 166 185 170 193 224 231 237 250 263 271 283 294
308 307 306 307 306 303 298 298 297 302 305 302 295 282 265 194 137 136 141 154 137 132 128 138 151 152 141 154 181 203 222 236 259 269 280 292 300 302
309 308 309 310 307 304 301 295 294 297 297 271 140 120 116 115 118 123 123 135 122 127 156 139 158 164 141 170 199 218 238 259 277 293 301 304 305 306
302 304 309 312 311 309 308 309 294 242 151 136 127 117 113 114 115 110 101 93 93 104 138 143 148 179 186 166 187 223 246 270 287 299 307 311 310 307
303 306 307 309 314 328 7 1 140 161 156 138 124 114 107 108 113 111 98 83 84 101 118 134 134 161 195 207 217 228 251 284 300 311 312 306 302 304
307 306 301 307 308 315 104 127 138 139 136 129 123 122 122 121 117 100 83 87 81 93 93 82 61 56 216 209 240 275 300 304 303 304 306 304 307 314
299 290 282 270 254 183 154 147 150 145 135 124 127 131 134 122 103 74 42 22 36 73 68 50 21 356 345 322 295 294 297 298 304 314 322 325 325 325
267 251 249 238 215 186 173 170 175 183 186 166 137 137 153 226 301 303 291 315 347 16 3 347 294 266 283 304 304 308 314 322 326 327 328 323 321 320
248 243 236 231 217 199 198 203 216 233 241 240 252 255 247 266 277 285 289 299 297 279 248 242 267 312 31 316 327 335 331 327 325 324 324 321 322 323
241 240 242 235 227 223 227 235 242 245 248 246 244 253 264 270 270 268 265 266 262 247 237 246 312 339 337 315 310 323 322 320 319 319 322 320 317 319
243 241 235 230 231 235 235 237 238 237 244 253 259 262 264 264 262 260 257 252 248 244 253 293 299 302 308 314 311 315 317 315 319 321 321 318 319 325
255 242 237 233 229 230 232 231 233 242 252 260 265 265 263 258 253 248 244 246 247 259 272 274 285 298 305 304 309 309 311 318 318 317 314 311 311 304
249 244 230 228 229 226 229 238 247 255 262 263 264 264 260 255 248 241 241 241 245 250 258 266 276 285 292 300 304 305 310 315 317 318 317 308 303 300
Wind_Speed_850mb
66 69 72 74 71 73 78 74 75 91 114 78 76 78 74 71 68 70 78 76 70 71 71 75 78 79 79 79 76 78 85 87 97 99 94 70 66 65
61 66 70 74 75 77 74 74 74 79 97 98 83 79 87 90 90 85 81 75 72 69 71 75 78 77 79 78 78 75 77 80 78 77 80 64 58 59
64 67 71 71 75 77 75 72 77 76 88 123 98 97 100 98 94 85 82 79 77 74 72 76 77 80 79 78 73 68 73 70 87 66 58 47 38 36
71 73 76 76 78 76 75 76 74 78 80 94 106 100 99 103 96 92 87 83 81 78 75 74 73 73 75 71 60 52 51 54 35 49 52 47 44 42
76 78 81 81 83 81 80 79 76 74 80 87 102 94 99 97 93 91 88 85 81 76 71 69 66 64 55 30 39 52 59 44 48 51 42 40 40 40
82 82 82 82 84 84 84 83 79 77 79 83 95 99 96 96 93 90 88 80 75 70 65 60 57 51 36 35 37 31 34 42 44 40 38 37 38 44
85 84 84 83 82 82 83 85 79 78 83 88 94 94 94 95 92 86 77 71 67 60 51 43 34 21 20 30 29 30 32 30 28 26 26 32 32 29
93 92 90 89 86 84 81 81 76 76 83 85 90 87 88 83 84 80 70 60 47 36 24 15 5 13 23 24 20 20 20 19 18 21 22 22 29 30
96 97 99 94 91 88 86 84 82 76 74 82 87 89 86 81 77 67 52 42 32 19 9 9 14 18 15 17 21 20 17 18 21 25 23 21 24 28
97 97 96 96 89 87 86 86 83 77 73 74 78 80 75 65 54 45 34 26 13 15 18 30 23 26 23 21 18 17 20 25 21 17 19 23 26 29
99 97 94 92 79 74 77 80 76 72 65 61 56 49 42 34 29 23 18 19 24 25 15 32 27 24 20 15 8 17 26 21 17 19 21 22 24 28
96 94 90 79 71 64 66 63 63 57 45 33 26 21 14 7 11 11 20 20 29 25 18 18 25 21 15 21 29 28 20 16 15 17 17 21 28 35
88 84 78 67 63 54 42 40 38 32 17 7 9 21 24 27 28 27 21 23 15 17 22 13 21 20 11 24 27 25 21 17 14 17 22 27 35 40
70 70 64 54 35 31 31 21 10 6 13 21 24 26 29 29 24 19 16 13 13 13 15 9 11 11 10 12 12 18 18 17 19 21 27 33 36 39
53 52 40 24 27 16 7 4 5 10 18 27 29 26 22 20 16 12 10 9 9 10 8 5 4 6 6 5 5 6 8 12 20 24 29 33 37 37
42 31 18 17 9 5 2 9 14 23 25 20 17 15 13 12 9 7 5 7 6 8 7 4 3 0 1 3 3 4 12 16 26 28 27 28 30 28
30 17 14 11 9 8 13 21 22 17 13 10 8 8 8 6 3 2 2 2 2 4 3 3 3 3 3 3 6 12 18 22 23 25 25 28 30 29
24 19 20 16 12 19 19 18 15 9 4 2 4 4 2 1 1 1 2 2 3 2 3 2 2 3 3 4 7 10 14 19 24 27 30 32 31 29
30 27 29 26 21 19 19 16 12 9 5 4 4 3 3 3 4 5 6 5 3 2 3 3 2 2 4 4 10 14 19 23 26 28 30 31 34 32
36 38 37 32 29 25 21 18 15 12 9 8 6 6 6 8 9 9 8 8 6 4 4 2 3 5 5 7 13 18 20 24 27 28 30 31 33 32
41 40 39 35 31 28 24 19 16 13 12 11 11 11 12 12 12 11 10 8 6 6 5 3 4 6 8 11 13 19 20 22 25 28 30 33 35 33
39 43 43 38 33 27 23 20 17 16 16 15 15 14 14 13 13 11 10 9 9 8 6 6 7 9 11 14 16 19 22 23 25 24 24 27 30 26
40 38 38 34 31 27 23 21 20 19 19 19 17 16 16 14 13 12 12 12 11 10 10 9 10 12 14 15 17 20 22 24 26 23 19 23 26 29
Wind_Direction_850mb
301 301 299 298 292 283 282 285 279 286 292 290 288 292 293 293 292 292 297 299 295 292 287 284 284 285 282 278 273 265 262 259 254 227 219 213 211 219
306 304 301 301 300 295 290 286 278 273 278 291 288 288 289 290 293 298 297 298 295 291 290 288 288 285 285 281 277 271 258 258 230 207 218 210 222 231
309 307 305 303 299 296 292 285 279 278 274 287 284 289 289 292 294 297 297 298 295 294 291 288 283 282 283 282 280 274 254 245 217 211 214 212 219 223
312 309 307 305 302 301 298 293 285 277 279 278 287 288 289 292 294 294 295 295 295 295 292 290 287 285 286 286 280 255 230 189 190 185 188 197 209 229
312 311 310 308 305 303 301 295 290 288 282 280 284 285 288 290 291 291 293 294 295 295 293 291 288 286 285 242 225 232 217 204 195 198 212 219 227 232
311 310 309 307 305 304 302 298 296 291 288 284 282 285 286 286 287 289 291 294 295 293 291 287 284 285 271 236 241 232 210 202 206 215 221 235 249 254
310 310 309 307 304 301 299 297 294 289 287 286 286 287 286 287 289 293 294 295 296 295 293 288 283 275 210 201 200 198 199 210 222 229 240 255 261 267
311 310 308 307 305 301 297 294 290 286 285 285 285 284 286 288 291 293 292 290 290 294 293 282 238 168 187 185 189 201 204 208 229 254 261 262 275 277
310 310 309 307 305 302 299 295 292 291 286 286 284 283 285 287 289 288 283 278 270 268 216 158 178 170 169 162 177 194 214 241 256 261 268 271 271 270
309 308 306 305 304 301 298 295 296 297 293 287 285 286 286 284 277 276 271 259 236 171 155 131 157 153 166 176 195 230 251 243 252 256 256 264 271 279
309 307 306 305 305 299 296 295 296 297 297 293 288 285 282 277 275 263 233 186 158 150 134 150 157 154 166 185 170 193 224 231 237 250 263 271 283 294
308 307 306 307 306 303 298 298 297 302 305 302 295 282 265 194 137 136 141 154 137 132 128 138 151 152 141 154 181 203 222 236 259 269 280 292 300 302
309 308 309 310 307 304 301 295 294 297 297 271 140 120 116 115 118 123 123 135 122 127 156 139 158 164 141 170 199 218 238 259 277 293 301 304 305 306
302 304 309 312 311 309 308 309 294 242 151 136 127 117 113 114 115 110 101 93 93 104 138 143 148 179 186 166 187 223 246 270 287 299 307 311 310 307
303 306 307 309 314 328 7 1 140 161 156 138 124 114 107 108 113 111 98 83 84 101 118 134 134 161 195 207 217 228 251 284 300 311 312 306 302 304
307 306 301 307 308 315 104 127 138 139 136 129 123 122 122 121 117 100 83 87 81 93 93 82 61 56 216 209 240 275 300 304 303 304 306 304 307 314
299 290 282 270 254 183 154 147 150 145 135 124 127 131 134 122 103 74 42 22 36 73 68 50 21 356 345 322 295 294 297 298 304 314 322 325 325 325
267 251 249 238 215 186 173 170 175 183 186 166 137 137 153 226 301 303 291 315 347 16 3 347 294 266 283 304 304 308 314 322 326 327 328 323 321 320
248 243 236 231 217 199 198 203 216 233 241 240 252 255 247 266 277 285 289 299 297 279 248 242 267 312 31 316 327 335 331 327 325 324 324 321 322 323
241 240 242 235 227 223 227 235 242 245 248 246 244 253 264 270 270 268 265 266 262 247 237 246 312 339 337 315 310 323 322 320 319 319 322 320 317 319
243 241 235 230 231 235 235 237 238 237 244 253 259 262 264 264 262 260 257 252 248 244 253 293 299 302 308 314 311 315 317 315 319 321 321 318 319 325
255 242 237 233 229 230 232 231 233 242 252 260 265 265 263 258 253 248 244 246 247 259 272 274 285 298 305 304 309 309 311 318 318 317 314 311 311 304
249 244 230 228 229 226 229 238 247 255 262 263 264 264 260 255 248 241 241 241 245 250 258 266 276 285 292 300 304 305 310 315 317 318 317 308 303 300